Location: Gro�bocka
(50.8204°N, 11.9702°E)
Time: 01:03:08
(UTC+00:00)

PSLV R/B - Pass Details

Date: 29 October 2020
Orbit: 567 x 599 km, 98.2° (Epoch: 23 November)

Event Time Altitude Azimuth Distance (km) Brightness Sun altitude
Rises 17:32:26 0° 15° (NNE) 2,845 7.3 -16.4°
Reaches altitude 10° 17:34:37 10° 17° (NNE) 1,934 6.4 -16.7°
Maximum altitude 17:38:49 79° 103° (ESE) 606 3.8 -17.4°
Drops below altitude 10° 17:42:57 10° 191° (S) 1,899 6.7 -18.1°
Sets 17:45:05 0° 193° (SSW) 2,788 7.6 -18.4°
